Location: La Cour Poisson
(47.9191°N, 1.1908°W)
Time: 16:36:46
(UTC+00:00)

Daily predictions for brighter satellites

Satellite Brightness Start Highest point End
(mag) Time Altitude Azimuth Time Altitude Azimuth Time Altitude Azimuth
Landsat 7 3.9 20:38:33 10° SSE 20:43:19 85° ENE 20:48:07 10° NNW
CZ-2C R/B 4.1 20:40:48 10° NNE 20:45:27 48° E 20:50:02 10° S
Spot 2 Rocket 4.0 20:41:24 10° SE 20:46:11 46° ENE 20:51:02 10° N
Cosmos 1707 2.7 20:42:58 10° S 20:46:49 71° E 20:50:43 10° NNE
Okean 1 Rocket 3.3 20:42:41 10° NNW 20:47:02 73° W 20:51:24 10° S
Lacrosse 5 rocket 2.6 20:45:00 10° SSE 20:47:18 16° SE 20:49:36 10° E
Okean 2 3.6 20:43:23 10° SSW 20:47:28 77° W 20:51:34 10° N
Cosmos 1420 Rocket 4.1 20:43:14 10° SSW 20:48:25 85° WNW 20:53:40 10° NNE
Cosmos 1455 Rocket 3.8 20:44:54 10° N 20:49:08 40° ENE 20:53:20 10° SE
In-Cosmos 22 4.3 20:44:40 10° S 20:49:46 53° E 20:54:56 10° NNE
ERS-1 Rocket 3.9 20:45:15 10° SE 20:49:47 35° ENE 20:54:19 10° N
Cosmos 220 Rocket 4.4 20:46:58 10° SSW 20:51:15 68° WNW 20:55:31 10° NNE
MetOp-B 4.2 20:50:18 10° SSE 20:55:39 89° ENE 21:01:03 10° NNW
Cosmos 1378 Rocket 4.4 20:52:14 10° SSW 20:56:30 55° WNW 21:00:49 10° N
BREEZE-M DEB (TANK) 2.9 20:57:29 10° S 20:59:17 18° SE 21:01:47 10° E
Cosmos 2333 Rocket 3.6 20:56:41 10° SSE 21:00:48 21° E 21:04:55 10° NE
Cosmos 1727 Rocket 4.0 20:55:00 10° S 21:01:17 74° E 21:07:33 10° NNE
Cosmos 1953 2.6 21:02:24 10° N 21:06:25 54° ENE 21:10:22 10° SSE
Cosmos 1741 Rocket 4.1 21:01:46 10° NNW 21:07:04 82° ENE 21:12:21 10° SSE
Cosmos 1626 3.2 21:04:14 10° SSE 21:07:23 27° E 21:10:33 10° NNE
SPOT 3 Rocket 4.0 21:02:52 10° S 21:07:58 60° WSW 21:13:07 10° NNW
USA 238 DEB 4.2 21:01:38 10° SW 21:08:10 65° NW 21:15:06 10° NE
USA 238 4.2 21:01:45 10° SW 21:08:16 65° NW 21:15:12 10° NE
Cosmos 1844 4.0 21:05:58 10° NNW 21:11:28 57° ENE 21:16:41 11° SE
Cosmos 2219 Rocket 3.5 21:07:43 10° SSE 21:11:52 21° E 21:16:03 10° NE
Cosmos 2285 Rocket 4.4 21:06:24 10° SSW 21:12:49 70° WNW 21:19:16 10° NNE
CENTAUR R/B 3.3 21:10:18 10° WSW 21:16:18 61° NW 21:23:33 10° NE
Cosmos 1802 Rocket 4.3 21:11:36 10° N 21:17:47 57° ENE 21:23:39 12° SSE
DNEPR-1 R/B 4.4 21:18:33 10° NNW 21:22:36 41° NE 21:26:37 11° ESE
NOSS 8 (A) 4.2 21:20:52 10° SW 21:24:12 83° NW 21:27:07 10° NE
KORONAS-FOTON 3.7 21:22:33 10° S 21:26:21 83° E 21:30:09 10° N
Cosmos 1025 Rocket 3.3 21:22:43 10° S 21:26:54 50° E 21:31:09 10° NNE
Aureole 1 Rocket 4.1 21:23:24 10° NNW 21:29:09 85° ENE 21:35:50 13° SSE
CARTOSAT-1 3.7 21:27:34 11° S 21:31:42 78° WSW 21:36:03 10° NNW
Cosmos 1459 Rocket 3.9 21:26:00 10° N 21:32:07 85° E 21:37:54 11° S
Cosmos 1461 2.9 21:28:43 10° NW 21:32:57 72° WSW 21:36:05 16° SSE
Resurs 01 Rocket 3.5 21:29:31 10° SSW 21:33:13 26° W 21:36:57 10° NW
SL-16 R/B 3.0 21:28:15 10° SW 21:33:48 57° WNW 21:39:25 10° NNE
Cosmos 2360 Rocket 2.2 21:28:12 10° SSW 21:33:49 74° ESE 21:39:28 10° NNE
Cosmos 2322 Rocket 2.6 21:30:11 10° SW 21:35:52 68° WNW 21:41:35 10° NNE
USA 267 4.2 21:31:48 10° E 21:37:59 47° NNE 21:44:11 10° NW
JB-3 4.5 21:34:06 10° N 21:38:04 77° WNW 21:42:04 10° SSW
Cosmos 1975 Rocket 3.5 21:36:27 10° SSW 21:40:45 64° W 21:45:09 10° N
Cosmos 1900 4.3 21:36:15 10° NW 21:41:12 81° NE 21:44:58 17° SE
Cosmos 1000 Rocket 4.5 21:35:44 10° S 21:41:53 87° E 21:48:03 10° N
Cosmos 1674 3.1 21:39:11 10° SSW 21:42:51 61° W 21:46:33 10° N
Meteor 1-16 Rocket 4.5 21:38:40 10° NNW 21:44:07 64° W 21:49:14 11° S
Cosmos 1110 Rocket 3.9 21:39:17 10° SSW 21:44:26 81° ESE 21:49:41 10° NNE
ATLAS CENTAUR R/B 1.8 21:40:38 10° NNW 21:44:54 63° NE 21:48:22 17° SE
Meteor 2-11 Rocket 4.5 21:39:02 10° N 21:45:12 85° W 21:50:42 13° S
SPOT 5 3.0 21:41:32 14° SSE 21:46:04 82° WSW 21:50:59 10° NNW
Cosmos 968 Rocket 4.2 21:44:48 10° NNW 21:49:40 43° ENE 21:53:28 16° SE
Cosmos 1300 3.0 21:48:29 10° N 21:52:14 52° ENE 21:54:30 21° SSE
COSMOS 2428 3.4 21:48:21 15° SSE 21:52:24 36° ESE 21:57:35 10° NE
Terra 1.8 21:49:22 17° SSE 21:53:03 85° ENE 21:57:51 10° NNW
Cosmos 2061 Rocket 4.1 21:47:30 10° N 21:53:59 81° E 21:59:13 16° SSE
FALCON 9 DEB 4.3 21:54:51 20° ESE 21:54:51 20° ESE 21:56:37 10° E
Cosmos 2322 3.9 21:48:40 10° S 21:54:07 52° ESE 21:59:35 10° NE
Cosmos 1864 Rocket 4.5 21:49:40 10° N 21:55:55 80° E 22:00:47 17° SSE
OPS 8737 4.5 21:53:30 10° SSW 21:57:31 58° SE 22:00:38 10° NE
Cosmos 2278 Rocket 3.4 21:54:06 10° NNW 21:59:14 33° NE 22:04:01 11° ESE
Cosmos 405 2.8 21:56:26 10° N 21:59:54 78° ENE 22:01:49 24° SSE
Lacrosse 5 3.9 21:57:29 10° W 22:00:41 17° WSW 22:03:52 10° SSW
Cosmos 2123 Rocket 4.0 21:59:11 12° S 22:05:07 83° E 22:11:29 10° N
SL-8 R/B 4.0 22:03:34 10° W 22:08:11 48° SSW 22:10:57 22° SE
Cosmos 1844 Rocket 3.3 22:02:54 10° NW 22:08:21 48° WSW 22:12:33 17° S
Cosmos 1340 2.6 22:06:52 17° SSW 22:09:40 87° WNW 22:13:27 10° N
ARIANE 5 R/B 4.0 22:06:43 11° SSW 22:10:37 34° W 22:14:44 10° NNW
Cosmos 1346 Rocket 3.8 22:11:16 23° SE 22:12:49 31° E 22:16:25 10° NNE
Cosmos 2233 Rocket 4.0 22:06:52 10° N 22:13:01 69° E 22:17:18 21° SSE
FALCON 9 DEB 3.3 22:09:39 10° WSW 22:13:04 72° NNW 22:16:30 10° ENE
H-2A R/B 3.3 22:09:11 10° NNE 22:13:17 80° ESE 22:16:08 19° S
FALCON 9 DEB 3.1 22:11:35 10° SW 22:14:33 43° SE 22:17:31 10° ENE
GEOS 3 Rocket 4.1 22:11:18 15° ESE 22:15:43 59° NE 22:20:59 10° NW
FALCON 9 DEB 3.3 22:18:01 36° SSE 22:18:22 37° SE 22:21:17 10° ENE
Meteor 2-5 Rocket 3.6 22:18:55 17° S 22:23:15 83° E 22:28:53 10° NNE
FALCON 9 DEB 3.0 22:21:32 14° SW 22:23:58 49° SE 22:27:00 10° ENE
Lacrosse 5 rocket 1.1 22:22:20 10° WSW 22:25:59 77° NW 22:29:34 10° NE
Cosmos 1606 Rocket 4.1 22:22:40 10° N 22:27:02 49° ENE 22:29:16 26° SE
ATLAS 3B R/B 2.5 22:20:49 10° SSW 22:27:21 79° SE 22:34:08 10° NE
ERS-1 Rocket 4.2 22:24:30 13° SSW 22:28:33 35° W 22:33:10 10° NNW
Cosmos 2333 4.5 22:27:24 10° SW 22:33:09 72° WNW 22:38:54 10° NNE
ALOS 2 4.0 22:32:40 17° ESE 22:35:08 28° ENE 22:38:52 10° N
Cosmos 1943 Rocket 4.4 22:34:44 10° N 22:38:24 18° NE 22:42:03 10° E
Spot 4 4.2 22:39:08 25° SE 22:41:43 56° ENE 22:46:24 10° N
Cosmos 1626 4.3 22:39:35 10° SW 22:42:34 23° WNW 22:45:35 10° NNW
Cosmos 2333 Rocket 2.5 22:38:45 10° SW 22:44:29 72° WNW 22:50:14 10° NNE
USA 215 3.2 22:39:49 10° ENE 22:46:18 61° SE 22:52:45 10° SW
Cosmos 1302 Rocket 4.4 22:44:59 10° SW 22:50:12 63° WNW 22:55:25 10° NNE
Meteor 2-10 Rocket 3.5 22:47:04 10° NNW 22:52:10 75° W 22:54:49 28° S
Cosmos 2219 Rocket 2.5 22:49:37 10° SW 22:55:16 68° WNW 23:00:58 10° NNE
Cosmos 1464 Rocket 4.3 22:52:02 10° N 22:58:19 59° ENE 23:02:03 25° SSE
Cosmos 1867 3.6 22:53:29 10° NW 22:58:59 76° SW 23:01:49 29° SSE
Cosmos 1607 4.2 22:54:11 10° NW 23:00:38 72° NE 23:05:04 21° SE
Cosmos 389 Rocket 2.7 22:59:43 10° NNW 23:03:06 59° W 23:04:01 41° SSW
Iridium 2 3.5 23:05:20 42° S 23:06:32 86° E 23:10:18 10° N
COBE Rocket 4.0 23:04:31 30° SSE 23:07:01 70° ENE 23:11:57 10° N
Meteor 1-24 Rocket 4.2 23:03:16 17° SSW 23:07:21 54° WNW 23:12:45 10° N
SL-16 R/B 3.7 23:06:17 17° ESE 23:07:51 19° E 23:11:46 10° NE
Cosmos 2237 Rocket 2.4 23:09:08 30° S 23:11:45 55° ESE 23:17:15 10° NE
Cosmos 2228 3.6 23:07:33 10° NNW 23:11:49 49° W 23:13:45 28° SSW
Meteor 1-4 Rocket 4.0 23:12:43 10° NNE 23:15:42 26° ENE 23:16:45 22° E
Cosmos 2360 Rocket 4.4 23:13:53 10° W 23:18:25 24° NW 23:22:58 10° N
Cosmos 1455 2.2 23:15:41 10° NNW 23:19:31 76° W 23:20:36 45° S
USA 267 3.2 23:14:47 13° ESE 23:20:40 88° NNE 23:27:15 10° NW
Cosmos 2369 Rocket 4.4 23:16:49 10° N 23:20:59 20° NE 23:25:09 10° E
Cosmos 1184 Rocket 2.6 23:22:45 62° SSE 23:23:09 73° E 23:26:23 10° NNE
ATLAS CENTAUR R/B 3.3 23:20:15 10° WNW 23:23:27 20° WSW 23:24:30 18° SW
Okean 1-7 Rocket 3.7 23:27:36 38° SSE 23:29:09 65° E 23:33:34 10° NNE
FALCON 9 DEB 3.2 23:26:41 12° WSW 23:29:34 65° NNW 23:32:42 10° ENE
Cosmos 1777 Rocket 4.4 23:25:15 10° NNW 23:30:29 58° ENE 23:33:24 26° SE
Terra 4.2 23:29:22 10° WSW 23:31:27 13° W 23:33:33 10° WNW
Cosmos 2034 Rocket 4.0 23:26:16 10° N 23:32:28 73° E 23:35:44 29° SSE
Meteor 1-21 Rocket 4.2 23:33:20 32° S 23:36:04 80° E 23:41:49 10° NNE
COSMOS 2428 3.8 23:31:07 10° SW 23:36:35 44° NW 23:42:05 10° NNE
Cosmos 1354 Rocket 4.1 23:31:53 10° NNW 23:37:12 68° WSW 23:39:28 34° S
Cosmos 1992 Rocket 4.5 23:34:10 19° SW 23:37:47 57° WNW 23:42:58 10° NNE
FAST Rocket 4.3 23:37:31 59° S 23:38:03 88° ESE 23:42:19 10° N
Cosmos 192 4.3 23:38:55 35° SSW 23:41:02 80° ESE 23:45:59 10° NNE
Cosmos 2297 4.4 23:36:59 10° NNW 23:42:29 50° NE 23:46:31 18° SE
Cosmos 2058 Rocket 3.3 23:38:39 10° NNW 23:43:03 59° W 23:44:34 37° SSW
Cosmos 2278 Rocket 2.6 23:38:05 10° NW 23:43:31 48° WSW 23:45:51 31° SSW
Cosmos 1812 Rocket 4.3 23:39:22 10° N 23:43:31 42° ENE 23:45:17 28° SE
GENESIS II 4.3 23:46:51 31° SW 23:48:34 72° NW 23:52:29 10° NE
FALCON 9 DEB 4.1 23:47:12 10° W 23:50:10 42° NNW 23:53:09 10° ENE
FALCON 9 DEB 3.9 23:51:00 10° W 23:54:02 46° NNW 23:57:04 10° ENE
